Temp
13 13 14 15 15 14 14 14 13 16 17 15 15 15 16 16 16 16 16 15 14 14 14 14 14 14 13 13 13 13 13 12 8 6 6 7 7 8 8 8 8 8 7
13 13 13 14 14 14 14 14 14 15 16 16 16 16 16 16 16 15 15 15 14 14 14 14 13 13 12 12 12 12 11 11 9 6 6 6 6 7 7 7 7 7 6
14 13 14 14 13 14 13 13 13 14 16 15 16 16 15 15 15 15 14 14 14 14 13 13 13 12 12 12 11 10 10 10 9 7 5 5 5 6 6 6 6 6 6
14 13 13 13 13 13 13 14 14 15 15 16 15 15 15 15 14 14 13 13 13 13 12 12 12 12 11 11 10 10 9 8 8 7 6 6 7 7 7 6 6 6 5
13 12 12 13 13 13 13 13 14 14 15 15 15 14 14 14 14 13 13 13 12 12 11 11 11 11 10 10 10 8 8 8 7 7 7 7 7 7 6 7 5 5 5
12 12 12 12 13 12 12 12 13 13 13 13 13 13 14 14 14 14 13 11 11 10 10 9 9 8 8 8 7 8 8 8 8 6 6 5 5 6 6 5 5 4 3
10 11 11 12 12 12 12 12 12 12 12 13 13 13 12 12 13 13 11 10 10 9 9 8 6 6 7 7 6 6 6 5 6 6 4 4 4 4 5 4 4 3 1
9 11 11 11 11 11 11 12 12 12 12 12 12 12 12 11 12 11 11 9 9 8 8 7 7 6 6 6 6 5 4 4 4 3 3 3 3 4 4 4 4 2 2
9 11 11 11 11 11 11 11 11 12 11 11 11 11 10 9 11 10 10 8 8 8 7 7 7 6 5 6 6 3 2 2 3 3 2 2 2 2 3 4 3 3 1
9 9 10 11 11 11 11 11 11 11 11 11 10 10 10 8 9 10 9 7 7 6 6 6 6 5 4 4 4 3 3 2 2 2 1 1 1 0 1 1 1 -0 -0
8 8 10 11 11 10 10 10 10 9 9 9 8 8 8 7 7 8 7 7 6 5 5 6 6 6 5 4 4 3 3 3 2 2 1 1 0 -0 -0 -0 -0 -0 -2
6 8 10 10 10 9 9 8 8 8 7 7 7 7 7 7 7 7 7 7 5 4 4 4 4 4 4 4 4 4 3 3 2 1 1 1 0 0 0 -0 -1 -1 -1
6 7 9 9 9 9 8 7 7 7 6 6 6 6 7 8 8 8 7 5 4 4 4 3 3 3 4 4 4 3 3 2 2 1 1 1 0 0 0 0 0 -1 -1
5 7 9 8 8 8 7 7 6 6 6 6 6 7 7 7 6 6 5 4 4 3 3 3 3 3 3 3 3 3 2 2 2 1 1 1 0 -0 0 0 0 -0 -1
6 8 8 8 7 7 7 7 7 7 7 7 7 7 7 6 5 6 5 3 3 3 3 3 2 2 2 2 2 2 2 2 2 1 1 1 0 0 0 -0 -0 -1 -1
7 8 7 7 7 7 7 7 7 7 7 7 7 7 6 6 6 5 4 3 3 3 3 3 2 2 2 2 2 1 1 1 1 1 0 0 0 -0 -0 -1 -1 -1 -1
8 7 7 7 7 7 7 6 6 6 7 7 7 7 6 5 5 4 4 4 4 4 4 3 3 3 2 2 1 1 1 1 1 0 -0 -0 -0 -1 -1 -2 -2 -1 -1
8 7 7 7 7 6 6 6 6 6 5 5 6 6 5 5 5 4 4 4 4 4 4 3 3 3 2 2 1 1 1 0 0 -0 -0 -1 -1 -1 -1 -1 -1 -1 -1
7 7 7 6 6 6 6 6 6 5 5 4 4 4 4 4 4 4 4 4 4 4 3 3 3 2 2 1 1 1 0 0 -0 -0 -1 -1 -1 -1 -1 -1 -1 -1 -1
7 7 6 6 6 6 6 5 5 5 4 4 3 3 3 3 4 4 4 4 4 3 3 3 2 2 2 2 1 1 0 -0 -0 -0 -1 -1 -1 -1 -1 -1 -1 -1 -1
7 6 6 6 6 6 6 5 5 4 4 3 3 2 2 4 4 4 4 4 3 3 3 3 3 2 2 2 1 1 0 -0 -0 -1 -1 -1 -1 -1 -1 -1 -1 -2 -2
7 6 7 7 6 6 6 5 5 4 4 3 3 3 4 5 4 4 3 3 3 3 3 3 3 3 3 2 2 1 0 -0 -0 -1 -1 -1 -1 -1 -1 -1 -2 -2 -2
7 7 7 7 6 6 6 6 5 4 4 3 3 4 5 5 4 3 3 3 3 3 3 4 3 3 2 2 2 2 1 0 -0 -0 -1 -1 -1 -1 -1 -2 -2 -2 -2
6 7 6 6 6 6 6 6 5 5 4 4 4 5 5 4 4 3 3 3 4 3 4 4 4 3 2 3 2 2 1 1 0 -0 -0 -1 -1 -1 -1 -2 -2 -2 -2
6 6 6 6 6 6 6 6 5 5 5 5 5 5 5 4 4 3 3 4 4 4 4 4 4 3 3 3 3 2 2 1 1 0 -0 -1 -1 -1 -1 -2 -2 -2 -2
6 6 6 6 6 6 6 5 5 5 5 5 5 5 4 4 4 4 4 4 4 4 4 4 4 4 3 3 3 3 2 1 1 0 -0 -1 -1 -1 -1 -2 -2 -2 -2
Height
726 721 715 711 713 710 710 708 718 718 721 733 740 739 743 745 754 755 763 768 771 777 781 784 787 791 793 796 796 796 799 800 807 815 816 817 817 816 815 816 816 816 817
727 722 719 712 715 713 708 707 715 712 716 725 735 742 744 750 754 758 764 769 773 779 782 785 790 792 795 797 796 798 801 802 805 812 817 818 819 819 819 819 820 821 821
728 722 716 713 715 714 711 713 717 719 722 727 731 736 747 751 756 761 765 771 774 781 784 786 791 794 796 797 797 800 802 804 806 811 817 820 822 822 823 824 824 825 825
726 721 718 712 713 712 715 717 719 721 726 729 735 739 747 753 759 764 767 772 777 783 786 789 792 796 797 797 799 801 804 806 810 814 819 823 824 826 826 826 827 828 829
725 724 719 715 711 716 719 722 724 726 731 734 737 742 748 754 760 764 768 774 780 784 788 791 795 798 798 799 801 805 808 811 815 818 822 825 827 827 828 828 828 829 830
726 723 720 718 717 718 720 724 725 729 732 734 740 745 751 758 763 766 770 776 782 786 790 795 800 801 802 804 807 810 814 816 819 822 825 827 830 830 830 830 831 831 832
728 724 720 719 719 721 724 726 727 731 734 738 742 747 753 759 765 768 774 780 784 789 794 799 804 806 806 808 812 815 819 821 823 824 827 831 832 833 833 833 834 834 838
729 724 721 721 722 723 723 727 731 734 738 743 746 751 756 764 768 771 778 783 788 794 799 804 806 808 810 811 814 818 823 826 828 830 832 835 836 836 835 835 836 837 839
729 725 721 721 721 723 726 727 731 736 742 746 750 755 759 766 770 775 781 788 794 800 806 810 809 812 816 817 819 823 829 834 837 838 839 840 839 837 837 837 837 838 840
727 723 721 719 721 722 726 729 734 738 743 747 753 757 763 769 773 779 783 790 797 803 811 813 815 818 821 824 825 829 832 838 840 841 842 842 842 842 842 841 842 842 844
727 723 718 718 722 725 728 734 737 742 746 751 756 763 767 773 781 783 788 793 800 807 812 815 821 824 827 829 832 834 837 841 844 845 846 847 847 847 847 847 848 848 849
724 717 716 716 722 726 731 737 740 744 749 756 761 769 775 780 784 790 793 798 804 807 813 819 825 829 832 834 837 840 842 844 846 848 849 851 851 852 853 852 852 852 853
722 720 714 716 720 726 733 739 743 748 753 761 767 774 780 786 791 795 798 804 808 811 817 824 829 833 837 839 842 844 845 847 849 850 852 854 856 857 857 857 857 856 856
720 717 714 718 722 729 736 740 745 751 757 764 770 776 782 788 794 798 803 809 814 817 824 828 833 837 839 841 844 846 849 850 852 853 855 858 859 859 859 860 859 859 859
715 713 713 718 724 731 738 743 748 754 755 763 771 776 781 790 796 799 803 810 816 820 825 831 836 840 843 845 847 850 852 854 855 857 858 860 861 862 862 863 862 862 861
706 710 714 719 727 733 739 747 753 757 763 768 773 779 788 791 797 803 809 815 819 824 828 833 839 843 845 848 850 852 855 857 859 860 861 863 863 864 864 865 865 864 863
703 708 714 722 729 734 741 748 756 767 772 776 780 786 790 794 801 808 814 820 824 829 830 837 842 846 849 851 853 856 858 860 862 863 864 865 866 866 866 867 867 867 866
702 709 716 724 730 737 742 751 757 766 775 784 789 791 796 800 808 814 819 823 828 834 835 840 844 848 850 852 855 858 861 863 864 865 866 867 868 868 869 869 869 869 869
705 712 718 726 732 739 747 755 762 769 778 786 794 800 804 809 815 820 823 824 828 834 839 843 846 849 852 855 858 860 862 864 866 867 868 869 870 870 871 871 871 871 870
709 714 720 729 736 744 750 757 765 772 780 788 796 801 807 813 818 823 826 828 832 836 841 844 848 851 853 856 859 862 865 867 868 869 870 872 872 872 872 873 873 872 872
713 719 724 732 740 747 753 760 767 775 783 792 800 805 808 812 818 823 826 830 833 838 842 846 849 852 855 858 862 865 867 869 870 872 873 874 874 874 875 875 875 874 873
716 722 729 734 742 751 758 764 772 778 785 793 801 808 813 817 821 825 828 832 836 840 844 847 850 854 857 860 863 866 868 870 872 873 875 876 876 877 877 877 877 876 876
721 725 732 739 745 753 761 768 774 780 787 794 802 808 814 819 823 826 829 833 837 841 846 849 852 855 859 862 865 868 870 872 874 875 876 877 878 878 879 879 879 879 878
726 728 735 741 748 756 763 770 776 782 788 796 803 808 813 818 823 827 830 834 838 843 848 851 854 857 861 863 866 869 872 874 875 877 878 879 880 881 881 881 881 881 880
731 733 738 745 752 759 766 772 779 785 791 798 804 809 814 819 823 828 831 835 839 844 849 853 856 860 863 865 868 870 873 875 876 878 879 881 882 883 883 883 883 883 883
736 739 742 747 754 761 767 773 780 787 793 799 804 809 814 818 823 827 832 836 840 845 849 854 858 861 864 867 870 872 874 876 878 880 881 882 883 884 884 885 885 885 885
Wind_Speed
25 23 16 10 11 7 8 17 21 22 19 24 13 13 24 22 20 20 18 18 19 15 12 12 11 12 11 9 11 10 9 9 9 5 7 9 14 16 17 16 16 20 22
22 24 15 4 5 7 4 10 19 27 26 28 26 16 19 21 20 20 21 19 18 16 14 14 11 11 10 9 10 10 9 8 11 11 10 11 14 14 15 16 15 15 17
20 22 12 14 6 9 12 14 17 24 29 29 22 24 17 21 20 20 19 19 18 15 13 15 12 11 11 10 11 11 10 10 10 16 9 8 10 13 15 17 18 18 20
18 23 14 4 1 7 7 11 14 19 21 21 22 25 26 24 24 22 22 21 18 15 12 12 10 9 11 12 13 13 13 18 19 20 17 12 11 9 8 13 16 15 17
22 21 22 2 2 9 6 9 12 15 16 17 21 21 25 25 26 26 24 22 19 17 16 13 11 11 12 13 16 17 19 22 21 21 17 15 15 15 15 12 15 14 16
24 19 18 1 4 7 10 11 14 18 19 20 19 27 27 25 23 24 23 24 23 24 27 26 24 25 26 26 26 24 21 20 21 23 21 22 20 15 15 14 15 4 5
24 17 12 4 6 9 11 16 20 20 20 20 23 25 27 25 22 23 24 26 27 27 26 27 26 29 33 33 31 31 29 26 22 23 26 20 19 15 14 14 14 16 15
23 17 10 8 12 14 20 22 19 20 21 22 23 25 27 25 23 25 27 28 28 26 27 28 30 26 23 25 27 28 26 24 22 23 23 20 17 13 12 9 7 17 16
21 17 10 12 16 19 20 23 22 23 21 22 25 28 31 29 27 30 32 35 35 29 23 24 28 26 23 23 28 34 32 29 25 24 24 23 23 20 11 9 20 13 7
19 21 12 16 18 19 21 23 22 24 25 27 27 28 30 31 29 32 39 33 31 32 29 28 26 25 23 23 29 30 29 22 22 23 23 23 24 24 23 22 19 24 12
23 23 15 19 22 23 23 23 25 26 28 29 30 29 29 30 28 35 34 33 33 31 29 29 24 23 23 23 26 28 26 22 21 23 23 23 24 26 25 25 25 23 19
25 24 11 25 27 28 29 28 30 32 31 29 31 26 29 29 32 27 30 32 29 34 32 30 26 26 26 25 25 22 20 21 21 23 24 23 22 21 21 20 15 18 17
22 21 13 27 29 31 32 28 27 29 28 26 29 26 24 25 29 32 33 30 29 36 34 30 28 27 26 24 22 20 21 21 22 23 23 21 19 16 16 17 16 10 16
21 19 19 26 26 28 27 27 27 26 27 27 28 27 27 29 31 33 32 31 31 34 32 28 29 28 24 23 23 23 22 21 21 21 20 18 17 18 19 16 15 14 15
20 13 24 28 25 26 23 24 24 24 33 31 28 30 31 27 27 35 36 35 32 32 34 32 28 27 27 25 24 23 21 20 21 18 17 17 17 16 17 15 15 14 16
15 20 25 25 24 27 27 25 21 27 28 29 31 32 26 33 34 30 30 30 32 31 31 30 27 25 25 24 24 22 20 19 18 17 17 17 17 16 16 16 15 16 14
24 25 26 27 27 27 29 31 29 28 29 31 31 34 36 37 34 35 31 32 26 27 31 26 26 24 24 22 22 21 20 18 16 16 16 16 15 16 16 16 16 16 17
29 31 28 28 29 29 30 31 33 31 29 29 32 37 36 33 30 34 33 28 27 24 27 27 26 25 23 22 22 20 18 16 16 16 16 15 15 15 15 14 15 15 15
30 27 29 28 29 31 31 30 31 31 31 31 32 31 29 29 35 27 24 30 30 27 26 25 24 24 23 22 20 18 17 16 16 16 15 14 14 15 15 15 15 14 13
26 32 32 30 31 29 30 30 29 30 30 29 26 28 31 33 26 21 24 27 28 27 25 25 23 23 22 21 19 19 17 16 15 14 14 13 13 14 15 14 14 14 16
28 31 33 30 29 28 29 29 30 30 30 27 26 25 30 32 24 25 26 26 27 27 25 24 23 22 21 21 19 17 16 15 14 13 13 13 13 14 13 14 14 15 14
26 30 30 29 30 28 28 30 29 30 31 29 26 27 25 22 25 25 26 26 25 24 23 23 23 21 20 19 17 16 15 14 13 12 12 13 13 12 12 14 15 16 17
25 28 27 28 30 31 29 28 29 30 29 29 30 29 26 25 25 26 27 26 26 24 22 22 23 21 19 17 15 13 14 13 13 12 12 12 12 12 12 14 14 15 15
23 30 29 28 30 28 29 28 28 29 31 31 28 27 29 28 27 27 27 27 25 24 22 21 21 20 19 17 15 13 12 13 12 12 11 12 12 11 12 13 15 14 16
21 25 30 30 28 28 29 29 29 28 30 30 29 29 29 28 28 28 28 27 27 26 23 21 20 18 17 16 15 14 13 12 12 12 11 12 12 11 12 12 13 13 14
22 22 26 29 28 28 29 29 28 29 30 29 29 30 30 30 29 29 29 28 27 26 24 22 20 18 17 16 14 13 13 12 12 12 11 11 11 11 11 12 11 12 13
Wind_Direction
329 328 348 320 277 250 214 163 175 160 156 185 240 151 136 137 141 133 137 131 121 125 135 129 121 132 127 115 102 95 91 102 112 106 96 85 80 85 86 87 87 85 74
330 328 328 5 182 199 177 174 190 163 161 180 171 166 144 137 137 134 133 130 130 131 131 125 127 124 123 117 103 98 97 100 125 122 101 84 86 86 85 82 76 69 72
335 336 333 318 204 135 130 132 154 160 161 161 155 148 158 140 136 137 139 136 129 131 123 129 127 130 122 112 108 106 103 110 127 137 116 101 86 82 80 79 72 71 65
332 337 339 281 290 103 130 118 142 152 159 160 160 156 155 144 137 134 131 125 126 130 122 120 123 130 122 120 112 109 112 108 113 109 103 96 88 78 70 96 85 80 73
337 342 335 243 314 135 136 141 147 152 162 156 142 148 145 139 140 136 133 134 130 120 112 111 107 111 112 109 113 112 112 108 105 104 94 82 71 62 53 63 110 101 70
326 328 334 64 152 126 138 151 154 140 133 131 145 148 148 145 145 141 138 134 128 122 110 105 101 100 95 94 93 92 92 100 98 94 85 74 58 66 67 62 80 123 38
323 315 315 260 177 176 160 154 140 136 133 137 139 142 141 141 148 141 137 133 128 122 119 114 102 101 102 99 93 89 82 81 97 103 88 73 66 59 75 78 79 87 76
321 306 284 223 175 155 147 151 146 139 143 141 134 137 137 142 144 138 138 130 121 119 119 116 109 102 111 111 106 97 87 85 90 90 87 78 70 72 74 62 85 113 76
318 304 264 204 172 154 140 134 137 140 142 137 136 135 132 133 145 144 133 119 110 105 108 117 112 105 104 111 109 101 95 90 86 83 80 74 66 63 73 100 59 73 74
312 309 268 183 157 140 139 138 143 142 130 135 133 139 140 133 145 143 132 117 109 110 111 109 104 105 104 105 105 104 101 100 96 85 77 70 66 65 65 68 69 66 59
308 300 277 181 160 151 147 145 142 133 128 122 122 130 137 136 129 128 127 122 121 114 110 108 106 107 108 107 108 103 102 105 97 91 83 75 66 61 60 60 59 60 68
307 301 236 155 151 149 144 135 130 126 117 113 111 110 122 124 121 121 123 127 126 119 112 112 110 109 108 106 100 102 103 106 102 92 83 74 70 64 56 56 54 61 63
289 279 169 150 147 147 139 131 124 125 120 118 117 114 115 123 121 121 120 119 121 119 118 114 112 109 106 101 101 102 106 103 97 87 81 75 69 69 72 63 63 76 60
265 272 156 142 137 139 137 134 130 129 126 127 126 123 118 115 116 117 118 117 117 116 118 116 112 106 105 110 106 104 99 94 90 88 85 80 73 68 65 59 67 60 61
236 203 143 138 134 131 133 135 134 138 140 139 137 135 132 126 128 136 136 130 127 127 125 120 116 113 108 105 102 101 99 96 90 88 86 84 77 68 63 60 62 60 58
192 147 134 131 132 125 117 103 122 137 136 134 135 135 131 133 139 137 131 133 129 130 124 122 122 120 116 113 107 102 98 94 90 88 83 78 75 71 67 64 61 54 56
151 136 134 134 131 126 123 116 106 111 126 131 133 134 133 135 136 140 137 128 126 132 124 127 127 125 120 116 111 107 101 96 97 91 86 82 80 76 69 66 62 55 46
140 139 136 135 131 129 128 125 123 120 113 107 126 134 137 139 141 136 129 129 131 131 130 131 129 127 125 120 116 113 109 107 100 94 88 83 79 78 71 61 55 55 46
137 134 133 131 130 129 128 126 124 121 118 116 117 121 134 138 137 132 143 138 135 133 134 133 134 131 127 124 123 121 115 109 103 97 91 86 82 79 73 65 60 51 45
134 134 132 130 129 130 130 128 125 125 126 127 129 130 136 137 140 140 143 141 137 136 140 138 138 137 134 130 127 122 117 113 107 102 95 90 84 78 72 65 54 49 44
134 134 135 135 134 133 131 130 131 132 130 133 137 146 148 145 144 147 145 146 143 144 145 144 142 139 136 131 127 126 123 118 113 107 101 95 86 81 76 69 60 52 54
136 136 138 137 135 135 134 135 135 134 137 136 141 146 147 144 149 150 148 147 148 149 151 147 143 142 140 136 134 133 129 124 119 113 105 98 89 81 77 74 66 56 58
136 135 133 136 137 134 134 136 136 137 139 142 148 151 156 152 153 153 149 150 152 152 153 150 145 143 142 137 134 133 132 128 121 116 110 105 94 84 77 73 69 62 58
140 137 134 131 135 137 137 137 139 139 141 145 151 154 157 156 157 156 153 154 154 154 155 153 149 146 145 141 137 135 134 131 125 119 111 106 98 91 86 76 69 66 59
140 139 139 136 137 137 136 137 139 140 144 148 151 155 157 158 159 159 158 158 156 156 155 154 152 149 146 143 139 136 134 133 129 124 116 108 100 90 88 81 72 70 67
140 140 140 138 136 139 139 141 142 145 149 152 154 160 162 163 163 162 162 162 159 158 157 158 156 151 149 146 141 138 135 136 130 124 116 110 105 95 91 85 82 73 73